Preview of NWS' New Version of Forecast
This preview is not operational and should not be used for support decisions.
Latest weather observations around

Shoshone (CMP28)

Using English Units (Switch to International System of Units)
Date/ Time (PDT) Wind (mph) Vis. (mi) Weather Sky Cond. Temp (°F) Rel. Humidity Wind Chill (°F) Heat Index (°F) Pressure Precip. (in)
Air Dwpt 6 hour Altimeter (inHg) Sea level (inHg) 1 hr 3 hr 6 hr
Max Min
Sep 16 18:00 SSW 11   Clear   92 22     8%   86          
Sep 16 17:00 SW 11   Clear   93 26     9%   88          
Sep 16 16:00 SSW 11   Clear   95 30     10%   89          
Sep 16 15:00 SSW 12   Clear   96 25     8%   90 29.99        
Sep 16 14:00 S 8   Clear   96 28     9%   90          
Sep 16 13:00 SSE 4   Clear   95 30     10%   89          
Sep 16 12:00 SSE 5   Clear   92 30     11%   87          
Sep 16 11:00 SSE 7   Clear   90 31     12%   86          
Sep 16 10:00 SSE 5   Clear   88 31     13%   84          
Sep 16 09:00 SSE 3   Clear   85 30     14%   82          
Sep 16 08:00 ESE 1   Clear   77 34     21%   75          
Sep 16 07:00 E 1   Clear   75 32     21%   73          
Sep 16 06:00 SSE 1   Clear   78 32     19%   76          
Sep 16 05:00 SSE 2   Clear   78 32     19%   76          
Sep 16 04:00 SSE 1   Clear   79 32     18%   77          
Sep 16 03:00 S 9   Clear   87 34     15%   83          
Sep 16 02:00 S 9   Clear   87 34     15%   83 30.02        
Sep 16 01:00 S 9   Clear   87 34     15%   83 30.02        
Sep 16 00:00 S 9   Clear   87 34     15%   83 30.02        
Sep 15 23:00 S 13   Clear   89 34     14%   85          
Sep 15 22:00 S 10   Clear   91 29     11%   86 29.98        
Sep 15 21:00 S 8   Clear   94 24     8%   88 29.97        
Sep 15 20:00 SSW 5   Clear   96 22     7%   90 29.96        
Sep 15 19:00 SSW 5   Clear   97 29     9%   91 29.95        
Sep 15 18:00 S 5   Clear   100 36     11%   94 29.96        
Sep 15 17:00 S 8   Clear   100 36     11%   94 29.97        
Sep 15 16:00 SSE 4   Clear   100 40     13%   95 29.99        
Sep 15 15:00 SSE 4   Clear   100 40     13%   95 30.02        
Sep 15 14:00 SSE 6   Clear   98 39     13%   93 30.05        
Sep 15 13:00 SSE 6   Clear   99 37     12%   94 30.08        
Sep 15 12:00 SSE 3   Clear   99 35     11%   94 30.1        
Sep 15 11:00 SSE 5   Clear   94 38     14%   90 30.12        
Sep 15 10:00 ESE 2   Clear   89 32     13%   85 30.13        
Sep 15 09:00 NNW 1   Clear   79 27     15%   77 30.12        
Sep 15 08:00 N 1   Clear   69 25     19%     30.11        
Sep 15 07:00 ENE 1   Clear   61 23     23%     30.09        
Sep 15 06:00 NNE 1   Clear   61 22     22%     30.09        
Sep 15 05:00 NNE 2   Clear   62 23     22%     30.08        
Sep 15 04:00 ENE 1   Clear   65 20     18%     30.08        
Sep 15 03:00 NE 1   Clear   71 24     17%   69 30.08        
Sep 15 02:00 NE 1   Clear   71 24     17%   69 30.08        
Sep 15 01:00 NE 1   Clear   71 24     17%   69 30.08        
Sep 15 00:00 NE 1   Clear   71 24     17%   69 30.08        
Sep 14 23:00 N 1   Clear   74 25     16%   72 30.08        
Sep 14 22:00 N 1   Clear   77 26     15%   75 30.07        
Sep 14 21:00 NNE 2   Clear   82 24     12%   79 30.06        
Sep 14 20:00 E 1   Clear   89 28     11%   85 30.05        
Sep 14 19:00 SE 1   Clear   98 30     9%   92 30.05        
Sep 14 18:00 SSE 2   Clear   105 29     7%   98 30.06        
Sep 14 17:00 SSW 4   Clear   105 25     6%   97 30.07        
Sep 14 16:00 SSW 5   Clear   105 25     6%   97 30.09        
Sep 14 15:00 S 5   Clear   105 29     7%   98 30.11        
Sep 14 14:00 S 2   Clear   103 27     7%   96 30.15        
Sep 14 13:00 SSW 2   Clear   100 25     7%   93 30.18        
Sep 14 12:00 SSW 2   Clear   96 25     8%   90 30.2        
Sep 14 11:00 SSW 2   Clear   90 26     10%   85 30.22        
Sep 14 10:00 SSW 1   Clear   84 24     11%   81 30.23        
Sep 14 09:00 W 1   Clear   77 22     13%   75 30.23        
Sep 14 08:00 E 1   Clear   64 25     23%     30.22        
Sep 14 07:00 NE 1   Clear   59 21     23%     30.2        
Sep 14 06:00 E 1   Clear   60 22     23%     30.19        
Sep 14 05:00 ENE 1   Clear   60 22     23%     30.18        
Sep 14 04:00 ENE 1   Clear   62 19     19%     30.17        
Sep 14 03:00 E 1   Clear   72 23     16%   70 30.16        
Sep 14 02:00 E 1   Clear   72 23     16%   70 30.16        
Sep 14 01:00 E 1   Clear   72 23     16%   70 30.16        
Sep 14 00:00 E 1   Clear   72 23     16%   70 30.16        
Sep 13 23:00 ENE 1   Clear   75 23     14%   73 30.15        
Sep 13 22:00 ENE 1   Clear   76 23     14%   74 30.15        
Sep 13 21:00 NNE 2   Clear   80 25     13%   78 30.12        
Sep 13 20:00 ENE 1   Clear   86 29     13%   83 30.11        
Sep 13 19:00 ESE 1   Clear   98 30     9%   92 30.1        
May 15 09:00 S 2   Clear   77 41     28%   76          
Notice The following observation data may not be complete
May 14 03:00 ENE 2   Clear     35      %     30.05        
May 14 02:00 ENE 2   Clear   73 35     25%   71 30.05        
May 13 02:00 SSW 4   Clear   70 38     31%     30.04        
Notice The following observation data may not be complete
May 12 17:00     Clear            %              
May 12 01:00 NNW 11   Clear   70 34     26%     29.89